EW7069 Weather Reports


Display with metric or nautical units.
time (UTC)temp
F
wind
direction
speed
MPH
gust
MPH
rain 1hr
in
rain 24hr
in
rain mn
in
humidity
%
barometer
mb
20260510180003 61 225 6.0 10.0 0.00 0.04 0.00 19 1004.8
20260510175002 62 252 6.0 8.0 0.00 0.04 0.00 19 1004.7
20260510174003 60 279 6.0 9.0 0.00 0.04 0.00 20 1004.3
20260510173003 61 317 7.0 12.0 0.00 0.04 0.00 20 1003.8
20260510171003 61 338 5.0 9.0 0.00 0.04 0.00 21 1003.4
20260510170003 61 337 6.0 9.0 0.00 0.04 0.00 19 1003.0
20260510165003 60 338 6.0 12.0 0.00 0.04 0.00 20 1002.8
20260510164003 60 337 8.0 15.0 0.00 0.04 0.00 20 1002.6
20260510163003 60 338 5.0 12.0 0.00 0.04 0.00 21 1002.3
20260510162003 60 358 5.0 12.0 0.00 0.04 0.00 21 1002.2
20260510161003 59 1 5.0 10.0 0.00 0.04 0.00 21 1002.1
20260510160003 59 1 5.0 8.0 0.00 0.04 0.00 21 1002.1
20260510155003 58 1 6.0 9.0 0.00 0.04 0.00 22 1001.8
20260510153004 59 1 4.0 8.0 0.00 0.04 0.00 23 1001.7
20260510152003 58 1 4.0 8.0 0.00 0.04 0.00 24 1001.6
20260510151002 58 1 5.0 8.0 0.00 0.04 0.00 23 1001.4
20260510150003 57 1 4.0 7.0 0.00 0.04 0.00 23 1001.4
20260510145003 56 1 5.0 11.0 0.00 0.04 0.00 23 1001.3
20260510144002 56 1 5.0 7.0 0.00 0.04 0.00 24 1001.2
20260510143003 56 1 7.0 9.0 0.00 0.04 0.00 23 1001.2
20260510141003 55 1 4.0 8.0 0.00 0.04 0.00 24 1001.3
20260510140003 55 1 5.0 8.0 0.00 0.04 0.00 23 1001.2
20260510135003 54 1 3.0 6.0 0.00 0.04 0.00 28 1001.4
20260510134003 54 1 3.0 5.0 0.00 0.04 0.00 29 1001.3
20260510133003 53 1 2.0 3.0 0.00 0.04 0.00 32 1001.6
20260510132003 53 1 2.0 4.0 0.00 0.04 0.00 33 1001.6
20260510130003 53 1 2.0 3.0 0.00 0.04 0.00 37 1001.8
20260510125003 51 1 1.0 2.0 0.00 0.04 0.00 42 1001.9
20260510124003 49 1 2.0 2.0 0.00 0.04 0.00 47 1001.7
20260510123003 45 1 1.0 2.0 0.00 0.04 0.00 56 1001.6
20260510122004 42 1 1.0 2.0 0.00 0.04 0.00 62 1001.7
20260510121003 40 1 1.0 2.0 0.00 0.04 0.00 68 1001.8
20260510120003 38 1 1.0 2.0 0.00 0.04 0.00 73 1001.5
20260510115003 37 1 1.0 2.0 0.00 0.04 0.00 71 1001.6
20260510114003 35 1 0.0 1.0 0.00 0.04 0.00 72 1001.7
20260510113004 34 1 0.0 1.0 0.00 0.04 0.00 71 1002.0
20260510112004 33 0 0.0 0.0 0.00 0.04 0.00 71 1001.9
20260510111004 33 0 0.0 0.0 0.00 0.04 0.00 70 1001.6
20260510110003 33 0 0.0 0.0 0.00 0.04 0.00 69 1001.4
20260510105003 33 0 0.0 0.0 0.00 0.04 0.00 67 1000.2
20260510104003 33 0 0.0 0.0 0.00 0.04 0.00 65 999.5
20260510103004 33 0 0.0 0.0 0.00 0.04 0.00 64 999.6
20260510102004 34 0 0.0 0.0 0.00 0.04 0.00 62 999.8
20260510095004 36 0 0.0 0.0 0.00 0.04 0.00 55 999.8
20260510094003 37 0 0.0 0.0 0.00 0.04 0.00 54 999.9
20260510093004 38 1 0.0 2.0 0.00 0.04 0.00 57 1000.0
20260510092003 39 1 0.0 2.0 0.00 0.04 0.00 56 999.7
20260510091004 39 1 0.0 1.0 0.00 0.04 0.00 55 999.9
20260510090003 40 1 0.0 2.0 0.00 0.04 0.00 54 1000.0
20260510083004 42 1 1.0 3.0 0.00 0.04 0.00 53 1000.0
20260510082003 42 1 1.0 2.0 0.00 0.04 0.00 52 999.7
20260510081003 43 1 1.0 2.0 0.00 0.04 0.00 52 1000.0
20260510080004 43 1 2.0 3.0 0.00 0.04 0.00 52 1000.1
20260510075003 43 1 2.0 4.0 0.00 0.04 0.00 54 999.8
20260510074002 43 1 2.0 4.0 0.00 0.04 0.00 55 999.5
20260510073001 44 1 2.0 4.0 0.00 0.04 0.00 57 999.4
20260510072002 43 1 2.0 4.0 0.00 0.04 0.00 60 999.4
20260510071002 43 1 2.0 5.0 0.00 0.04 0.00 64 999.4
20260510070002 42 1 1.0 4.0 0.00 0.04 0.00 66 999.5
20260510064002 40 1 1.0 2.0 0.00 0.04 0.00 69 999.6
20260510063002 40 1 0.0 2.0 0.00 0.04 0.00 68 999.7
20260510062001 40 1 1.0 2.0 0.00 0.04 0.00 67 999.7
20260510061002 40 1 0.0 1.0 0.00 0.04 0.00 65 999.7
20260510060001 41 0 0.0 0.0 0.00 0.04 0.00 64 999.8
20260510054002 42 0 0.0 0.0 0.00 0.04 0.00 60 999.7
20260510053002 43 0 0.0 0.0 0.00 0.04 0.00 58 999.6
20260510052002 44 0 0.0 0.0 0.00 0.04 0.00 56 999.5
20260510051001 44 0 0.0 0.0 0.00 0.04 0.00 54 999.4
20260510050002 45 1 0.0 2.0 0.00 0.04 0.00 52 999.1
20260510045003 46 0 0.0 0.0 0.00 0.04 0.00 50 998.9
20260510044002 46 0 0.0 0.0 0.00 0.04 0.00 50 998.6
20260510043002 47 0 0.0 0.0 0.00 0.04 0.00 49 998.7
20260510042002 48 0 0.0 0.0 0.00 0.04 0.00 48 998.6
20260510041002 49 1 0.0 1.0 0.00 0.04 0.00 46 998.2
20260510040002 49 1 1.0 2.0 0.00 0.04 0.00 45 997.5
20260510035002 49 1 1.0 3.0 0.00 0.04 0.04 44 996.9
20260510034002 51 1 1.0 1.0 0.00 0.04 0.04 42 997.3
20260510033002 52 1 1.0 3.0 0.00 0.04 0.04 41 996.5
20260510031002 54 1 2.0 5.0 0.00 0.04 0.04 36 996.2
20260510030002 54 1 4.0 6.0 0.00 0.04 0.04 34 996.5
20260510025003 55 1 4.0 8.0 0.00 0.04 0.04 33 996.3
20260510024003 56 1 5.0 8.0 0.00 0.04 0.04 32 996.6
20260510023002 56 1 5.0 10.0 0.00 0.04 0.04 32 996.4
20260510022002 57 1 3.0 8.0 0.00 0.04 0.04 32 997.0
20260510021001 58 1 4.0 8.0 0.00 0.04 0.04 31 996.6
20260510020002 59 1 6.0 11.0 0.00 0.04 0.04 30 997.5
20260510015002 59 1 6.0 11.0 0.00 0.04 0.04 30 998.8
20260510014003 60 1 7.0 13.0 0.00 0.04 0.04 31 1000.2
20260510013002 60 1 6.0 11.0 0.00 0.04 0.04 33 1001.8
20260510012002 61 1 5.0 8.0 0.00 0.04 0.04 33 1003.6
20260510010002 60 1 1.0 7.0 0.00 0.04 0.04 38 1000.6
20260510005003 61 1 0.0 1.0 0.00 0.04 0.04 34 1002.1
20260510004003 62 1 1.0 2.0 0.00 0.04 0.04 32 1002.4
20260510003002 63 1 1.0 2.0 0.00 0.04 0.04 30 1003.2
20260510002002 64 1 2.0 4.0 0.00 0.04 0.04 29 1004.0
20260510001003 64 1 3.0 6.0 0.00 0.04 0.04 31 1005.0
20260510000003 65 1 4.0 5.0 0.00 0.04 0.04 29 1006.3
20260509235002 66 1 6.0 8.0 0.00 0.04 0.04 28 998.9
20260509234002 67 1 5.0 8.0 0.00 0.04 0.04 26 999.6
20260509233002 67 1 6.0 8.0 0.00 0.04 0.04 25 1000.4
20260509231003 68 1 11.0 17.0 0.00 0.04 0.04 23 1000.6
20260509230002 68 1 9.0 13.0 0.00 0.04 0.04 21 1000.3
20260509225003 69 1 12.0 17.0 0.00 0.04 0.04 20 999.7
20260509224002 70 1 8.0 12.0 0.00 0.04 0.04 18 999.2
20260509223002 72 1 11.0 17.0 0.00 0.04 0.04 14 1007.4
20260509222003 74 1 9.0 14.0 0.00 0.04 0.04 17 1006.6
20260509221002 74 1 10.0 17.0 0.00 0.04 0.04 17 1005.5
20260509220002 73 1 11.0 16.0 0.00 0.04 0.04 13 1004.4
20260509215002 74 1 12.0 16.0 0.00 0.04 0.04 16 1003.1
20260509214002 74 1 13.0 21.0 0.00 0.04 0.04 17 1001.8
20260509213003 74 9 14.0 21.0 0.00 0.04 0.04 16 1000.8
20260509211002 74 253 11.0 15.0 0.00 0.04 0.04 23 999.1
20260509210002 73 321 13.0 21.0 0.00 0.04 0.04 19 998.4
20260509205002 73 301 11.0 15.0 0.00 0.04 0.04 21 997.9
20260509204002 73 314 11.0 15.0 0.00 0.04 0.04 21 997.2
20260509203002 72 1 9.0 15.0 0.00 0.04 0.04 24 996.6
20260509202003 72 333 9.0 11.0 0.00 0.04 0.04 26 996.3
20260509201002 69 268 9.0 12.0 0.00 0.04 0.04 31 996.0
20260509200003 70 314 10.0 17.0 0.00 0.04 0.04 30 995.7
20260509195003 68 314 9.0 16.0 0.00 0.04 0.04 35 995.2
20260509193002 68 309 10.0 18.0 0.02 0.04 0.04 39 1004.2
20260509191003 67 314 8.0 12.0 0.04 0.04 0.04 49 1003.5
20260509190002 65 318 9.0 15.0 0.04 0.04 0.04 56 1003.1
20260509185003 61 258 8.0 14.0 0.04 0.04 0.04 64 1002.7
20260509184002 60 253 12.0 30.0 0.04 0.04 0.04 61 1002.5
20260509183003 66 321 16.0 30.0 0.01 0.01 0.01 43 1002.7
20260509182002 69 326 9.0 15.0 0.00 0.00 0.00 33 1002.3
20260509181003 68 293 13.0 17.0 0.00 0.00 0.00 33 1002.4